datetime,release volume
1979-01-01,0.9520700000000001
1979-01-02,0.9520700000000001
1979-01-03,0.9719000000000001
1979-01-04,0.9520700000000001
1979-01-05,0.9520700000000001
1979-01-06,0.9520700000000001
1979-01-07,0.9520700000000001
1979-01-08,0.9520700000000001
1979-01-09,0.9520700000000001
1979-01-10,0.9520700000000001
1979-01-11,0.9520700000000001
1979-01-12,0.9520700000000001
1979-01-13,0.9520700000000001
1979-01-14,0.9520700000000001
1979-01-15,0.9520700000000001
1979-01-16,0.9520700000000001
1979-01-17,0.9520700000000001
1979-01-18,0.9520700000000001
1979-01-19,0.9520700000000001
1979-01-20,0.9520700000000001
1979-01-21,0.9520700000000001
1979-01-22,0.9520700000000001
1979-01-23,0.9520700000000001
1979-01-24,0.9520700000000001
1979-01-25,0.9520700000000001
1979-01-26,0.9520700000000001
1979-01-27,0.9520700000000001
1979-01-28,0.9520700000000001
1979-01-29,0.9520700000000001
1979-01-30,0.9520700000000001
1979-01-31,0.9520700000000001
1979-02-01,0.9520700000000001
1979-02-02,0.9520700000000001
1979-02-03,0.9520700000000001
1979-02-04,0.9520700000000001
1979-02-05,0.9520700000000001
1979-02-06,0.9520700000000001
1979-02-07,0.9520700000000001
1979-02-08,0.9520700000000001
1979-02-09,0.9520700000000001
1979-02-10,0.9520700000000001
1979-02-11,0.9520700000000001
1979-02-12,0.9520700000000001
1979-02-13,0.9520700000000001
1979-02-14,0.9520700000000001
1979-02-15,0.9520700000000001
1979-02-16,0.9520700000000001
1979-02-17,0.9520700000000001
1979-02-18,0.9520700000000001
1979-02-19,0.9520700000000001
1979-02-20,0.9520700000000001
1979-02-21,0.9719000000000001
1979-02-22,0.9719000000000001
1979-02-23,0.9719000000000001
1979-02-24,0.9719000000000001
1979-02-25,0.9719000000000001
1979-02-26,0.9719000000000001
1979-02-27,0.9719000000000001
1979-02-28,0.9520700000000001
1979-03-01,0.9520700000000001
1979-03-02,0.9520700000000001
1979-03-03,0.9520700000000001
1979-03-04,0.9520700000000001
1979-03-05,0.9520700000000001
1979-03-06,0.9520700000000001
1979-03-07,0.9520700000000001
1979-03-08,0.9719000000000001
1979-03-09,0.9719000000000001
1979-03-10,0.9719000000000001
1979-03-11,0.9719000000000001
1979-03-12,0.9719000000000001
1979-03-13,0.9719000000000001
1979-03-14,0.9719000000000001
1979-03-15,0.9520700000000001
1979-03-16,0.9520700000000001
1979-03-17,0.9520700000000001
1979-03-18,0.9520700000000001
1979-03-19,0.9520700000000001
1979-03-20,0.9520700000000001
1979-03-21,0.9719000000000001
1979-03-22,0.9719000000000001
1979-03-23,0.9719000000000001
1979-03-24,0.9719000000000001
1979-03-25,0.9719000000000001
1979-03-26,0.9719000000000001
1979-03-27,0.9719000000000001
1979-03-28,0.9719000000000001
1979-03-29,0.9719000000000001
1979-03-30,0.9719000000000001
1979-03-31,0.9520700000000001
1979-04-01,0.9719000000000001
1979-04-02,0.9719000000000001
1979-04-03,0.9719000000000001
1979-04-04,0.9719000000000001
1979-04-05,0.9719000000000001
1979-04-06,0.9719000000000001
1979-04-07,0.9719000000000001
1979-04-08,0.9719000000000001
1979-04-09,0.9719000000000001
1979-04-10,0.9719000000000001
1979-04-11,19.83471
1979-04-12,23.80165
1979-04-13,8.92562
1979-04-14,8.92562
1979-04-15,7.93388
1979-04-16,23.80165
1979-04-17,49.58678
1979-04-18,69.42149
1979-04-19,87.27273
1979-04-20,87.27273
1979-04-21,87.27273
1979-04-22,83.30579
1979-04-23,83.30579
1979-04-24,89.2562
1979-04-25,85.28926
1979-04-26,95.20661
1979-04-27,69.42149
1979-04-28,61.4876
1979-04-29,69.42149
1979-04-30,69.42149
1979-05-01,69.42149
1979-05-02,65.45455
1979-05-03,65.45455
1979-05-04,63.47107
1979-05-05,63.47107
1979-05-06,61.4876
1979-05-07,65.45455
1979-05-08,73.38843
1979-05-09,83.30579
1979-05-10,77.35537
1979-05-11,55.53719
1979-05-12,55.53719
1979-05-13,61.4876
1979-05-14,63.47107
1979-05-15,73.38843
1979-05-16,73.38843
1979-05-17,67.43802
1979-05-18,89.2562
1979-05-19,103.1405
1979-05-20,109.09091
1979-05-21,107.10744
1979-05-22,111.07438
1979-05-23,126.94215
1979-05-24,148.76033
1979-05-25,174.54545
1979-05-26,184.46281
1979-05-27,212.2314
1979-05-28,212.2314
1979-05-29,212.2314
1979-05-30,208.26446
1979-05-31,220.16529
1979-06-01,253.8843
1979-06-02,253.8843
1979-06-03,230.08264
1979-06-04,226.1157
1979-06-05,241.98347
1979-06-06,236.03306
1979-06-07,247.93388
1979-06-08,313.38843
1979-06-09,468.09917
1979-06-10,351.07438
1979-06-11,323.30579
1979-06-12,271.73554
1979-06-13,257.85124
1979-06-14,265.78512
1979-06-15,271.73554
1979-06-16,271.73554
1979-06-17,265.78512
1979-06-18,253.8843
1979-06-19,232.06612
1979-06-20,220.16529
1979-06-21,210.24793
1979-06-22,200.33058
1979-06-23,206.28099
1979-06-24,200.33058
1979-06-25,196.36364
1979-06-26,200.33058
1979-06-27,200.33058
1979-06-28,196.36364
1979-06-29,190.41322
1979-06-30,180.49587
1979-07-01,164.6281
1979-07-02,154.71074
1979-07-03,138.84298
1979-07-04,132.89256
1979-07-05,120.99174
1979-07-06,107.10744
1979-07-07,111.07438
1979-07-08,101.15702
1979-07-09,95.20661
1979-07-10,93.22314
1979-07-11,89.2562
1979-07-12,87.27273
1979-07-13,77.35537
1979-07-14,75.3719
1979-07-15,73.38843
1979-07-16,73.38843
1979-07-17,77.35537
1979-07-18,81.32231
1979-07-19,77.35537
1979-07-20,67.43802
1979-07-21,55.53719
1979-07-22,49.58678
1979-07-23,43.63636
1979-07-24,39.66942
1979-07-25,39.66942
1979-07-26,39.66942
1979-07-27,33.71901
1979-07-28,41.65289
1979-07-29,39.66942
1979-07-30,25.78512
1979-07-31,33.71901
1979-08-01,43.63636
1979-08-02,47.60331
1979-08-03,47.60331
1979-08-04,47.60331
1979-08-05,47.60331
1979-08-06,53.55372
1979-08-07,53.55372
1979-08-08,55.53719
1979-08-09,55.53719
1979-08-10,55.53719
1979-08-11,55.53719
1979-08-12,45.61983
1979-08-13,39.66942
1979-08-14,39.66942
1979-08-15,39.66942
1979-08-16,39.66942
1979-08-17,37.68595
1979-08-18,37.68595
1979-08-19,37.68595
1979-08-20,37.68595
1979-08-21,27.7686
1979-08-22,21.81818
1979-08-23,21.81818
1979-08-24,21.81818
1979-08-25,21.81818
1979-08-26,21.81818
1979-08-27,21.81818
1979-08-28,21.81818
1979-08-29,21.81818
1979-08-30,21.81818
1979-08-31,21.81818
1979-09-01,21.81818
1979-09-02,21.81818
1979-09-03,21.81818
1979-09-04,18.44628
1979-09-05,15.86777
1979-09-06,15.86777
1979-09-07,15.86777
1979-09-08,15.86777
1979-09-09,15.86777
1979-09-10,15.86777
1979-09-11,15.86777
1979-09-12,15.86777
1979-09-13,15.86777
1979-09-14,15.86777
1979-09-15,15.86777
1979-09-16,15.86777
1979-09-17,15.86777
1979-09-18,15.86777
1979-09-19,15.86777
1979-09-20,15.86777
1979-09-21,15.86777
1979-09-22,15.47107
1979-09-23,15.47107
1979-09-24,15.47107
1979-09-25,15.47107
1979-09-26,15.86777
1979-09-27,15.86777
1979-09-28,12.89256
1979-09-29,15.86777
1979-09-30,15.86777
1979-10-01,15.86777
1979-10-02,15.86777
1979-10-03,15.86777
1979-10-04,15.86777
1979-10-05,8.13223
1979-10-06,8.13223
1979-10-07,8.13223
1979-10-08,13.8843
1979-10-09,17.85124
1979-10-10,8.33058
1979-10-11,1.11074
1979-10-12,1.11074
1979-10-13,1.40826
1979-10-14,1.13058
1979-10-15,0.9917400000000001
1979-10-16,0.9917400000000001
1979-10-17,0.9917400000000001
1979-10-18,0.9917400000000001
1979-10-19,4.36364
1979-10-20,8.52893
1979-10-21,8.52893
1979-10-22,8.33058
1979-10-23,16.26446
1979-10-24,21.81818
1979-10-25,21.81818
1979-10-26,15.86777
1979-10-27,8.33058
1979-10-28,8.33058
1979-10-29,10.31405
1979-10-30,11.70248
1979-10-31,11.70248
1979-11-01,11.70248
1979-11-02,11.70248
1979-11-03,11.70248
1979-11-04,11.70248
1979-11-05,5.55372
1979-11-06,1.0314
1979-11-07,1.0314
1979-11-08,1.0314
1979-11-09,1.0314
1979-11-10,1.01157
1979-11-11,1.01157
1979-11-12,1.01157
1979-11-13,1.01157
1979-11-14,1.0314
1979-11-15,1.01157
1979-11-16,1.0314
1979-11-17,1.0314
1979-11-18,1.0314
1979-11-19,1.0314
1979-11-20,1.0314
1979-11-21,1.01157
1979-11-22,1.01157
1979-11-23,1.01157
1979-11-24,1.01157
1979-11-25,1.01157
1979-11-26,1.01157
1979-11-27,0.9520700000000001
1979-11-28,0.89256
1979-11-29,0.89256
1979-11-30,0.89256
1979-12-01,0.89256
1979-12-02,0.89256
1979-12-03,0.89256
1979-12-04,0.89256
1979-12-05,0.89256
1979-12-06,0.89256
1979-12-07,0.89256
1979-12-08,0.89256
1979-12-09,0.89256
1979-12-10,0.89256
1979-12-11,0.89256
1979-12-12,0.89256
1979-12-13,0.89256
1979-12-14,0.89256
1979-12-15,0.89256
1979-12-16,0.89256
1979-12-17,0.89256
1979-12-18,0.89256
1979-12-19,0.89256
1979-12-20,0.89256
1979-12-21,0.89256
1979-12-22,0.89256
1979-12-23,0.89256
1979-12-24,0.89256
1979-12-25,0.89256
1979-12-26,0.89256
1979-12-27,0.89256
1979-12-28,0.89256
1979-12-29,0.89256
1979-12-30,0.89256
1979-12-31,0.89256
1980-01-01,0.89256
1980-01-02,0.89256
1980-01-03,0.89256
1980-01-04,0.89256
1980-01-05,0.89256
1980-01-06,0.89256
1980-01-07,0.89256
1980-01-08,0.89256
1980-01-09,0.89256
1980-01-10,0.89256
1980-01-11,0.89256
1980-01-12,0.89256
1980-01-13,0.89256
1980-01-14,0.89256
1980-01-15,0.89256
1980-01-16,0.89256
1980-01-17,0.89256
1980-01-18,0.89256
1980-01-19,0.89256
1980-01-20,0.89256
1980-01-21,0.89256
1980-01-22,0.89256
1980-01-23,0.89256
1980-01-24,0.89256
1980-01-25,0.89256
1980-01-26,0.89256
1980-01-27,0.89256
1980-01-28,0.9124
1980-01-29,0.89256
1980-01-30,0.89256
1980-01-31,0.89256
1980-02-01,0.89256
1980-02-02,0.89256
1980-02-03,0.89256
1980-02-04,0.89256
1980-02-05,0.89256
1980-02-06,0.89256
1980-02-07,0.89256
1980-02-08,0.89256
1980-02-09,0.89256
1980-02-10,0.89256
1980-02-11,0.89256
1980-02-12,0.89256
1980-02-13,0.89256
1980-02-14,0.89256
1980-02-15,0.89256
1980-02-16,0.89256
1980-02-17,0.89256
1980-02-18,0.89256
1980-02-19,0.89256
1980-02-20,0.89256
1980-02-21,0.89256
1980-02-22,0.89256
1980-02-23,0.89256
1980-02-24,0.89256
1980-02-25,0.89256
1980-02-26,0.89256
1980-02-27,0.89256
1980-02-28,0.89256
1980-02-29,0.89256
1980-03-01,0.89256
1980-03-02,0.89256
1980-03-03,0.89256
1980-03-04,1.01157
1980-03-05,1.07107
1980-03-06,1.07107
1980-03-07,1.07107
1980-03-08,1.07107
1980-03-09,1.07107
1980-03-10,1.11074
1980-03-11,1.11074
1980-03-12,1.11074
1980-03-13,1.11074
1980-03-14,1.11074
1980-03-15,1.11074
1980-03-16,1.11074
1980-03-17,1.11074
1980-03-18,1.13058
1980-03-19,1.15041
1980-03-20,1.15041
1980-03-21,1.15041
1980-03-22,1.15041
1980-03-23,1.15041
1980-03-24,1.17025
1980-03-25,1.17025
1980-03-26,1.17025
1980-03-27,1.17025
1980-03-28,1.17025
1980-03-29,1.17025
1980-03-30,1.17025
1980-03-31,1.17025
1980-04-01,1.17025
1980-04-02,1.17025
1980-04-03,1.17025
1980-04-04,1.17025
1980-04-05,1.17025
1980-04-06,1.17025
1980-04-07,1.17025
1980-04-08,3.96694
1980-04-09,15.47107
1980-04-10,18.04959
1980-04-11,21.81818
1980-04-12,19.04132
1980-04-13,17.2562
1980-04-14,17.2562
1980-04-15,15.07438
1980-04-16,17.2562
1980-04-17,19.04132
1980-04-18,21.81818
1980-04-19,27.7686
1980-04-20,29.75207
1980-04-21,33.71901
1980-04-22,43.63636
1980-04-23,47.60331
1980-04-24,59.50413
1980-04-25,47.60331
1980-04-26,43.63636
1980-04-27,39.66942
1980-04-28,41.65289
1980-04-29,49.58678
1980-04-30,55.53719
1980-05-01,51.57025
1980-05-02,47.60331
1980-05-03,49.58678
1980-05-04,45.61983
1980-05-05,53.55372
1980-05-06,63.47107
1980-05-07,73.38843
1980-05-08,87.27273
1980-05-09,83.30579
1980-05-10,79.33884
1980-05-11,87.27273
1980-05-12,77.35537
1980-05-13,79.33884
1980-05-14,79.33884
1980-05-15,75.3719
1980-05-16,63.47107
1980-05-17,57.52066
1980-05-18,57.52066
1980-05-19,63.47107
1980-05-20,75.3719
1980-05-21,87.27273
1980-05-22,101.15702
1980-05-23,107.10744
1980-05-24,107.10744
1980-05-25,101.15702
1980-05-26,99.17355
1980-05-27,89.2562
1980-05-28,87.27273
1980-05-29,95.20661
1980-05-30,89.2562
1980-05-31,93.22314
1980-06-01,93.22314
1980-06-02,89.2562
1980-06-03,89.2562
1980-06-04,95.20661
1980-06-05,101.15702
1980-06-06,99.17355
1980-06-07,101.15702
1980-06-08,115.04132
1980-06-09,142.80992
1980-06-10,146.77686
1980-06-11,156.69421
1980-06-12,132.89256
1980-06-13,142.80992
1980-06-14,136.8595
1980-06-15,128.92562
1980-06-16,124.95868
1980-06-17,124.95868
1980-06-18,124.95868
1980-06-19,128.92562
1980-06-20,119.00826
1980-06-21,115.04132
1980-06-22,107.10744
1980-06-23,101.15702
1980-06-24,95.20661
1980-06-25,87.27273
1980-06-26,83.30579
1980-06-27,77.35537
1980-06-28,73.38843
1980-06-29,67.43802
1980-06-30,61.4876
1980-07-01,55.53719
1980-07-02,51.57025
1980-07-03,51.57025
1980-07-04,43.63636
1980-07-05,43.63636
1980-07-06,53.55372
1980-07-07,53.55372
1980-07-08,53.55372
1980-07-09,51.57025
1980-07-10,43.63636
1980-07-11,37.68595
1980-07-12,67.43802
1980-07-13,89.2562
1980-07-14,89.2562
1980-07-15,55.53719
1980-07-16,25.78512
1980-07-17,23.80165
1980-07-18,23.80165
1980-07-19,53.55372
1980-07-20,65.45455
1980-07-21,65.45455
1980-07-22,41.65289
1980-07-23,25.78512
1980-07-24,23.80165
1980-07-25,23.80165
1980-07-26,23.80165
1980-07-27,53.55372
1980-07-28,41.65289
1980-07-29,53.55372
1980-07-30,59.50413
1980-07-31,27.7686
1980-08-01,27.7686
1980-08-02,27.7686
1980-08-03,31.73554
1980-08-04,35.70248
1980-08-05,31.73554
1980-08-06,27.7686
1980-08-07,31.73554
1980-08-08,33.71901
1980-08-09,35.70248
1980-08-10,37.68595
1980-08-11,27.7686
1980-08-12,23.80165
1980-08-13,35.70248
1980-08-14,12.49587
1980-08-15,3.96694
1980-08-16,3.96694
1980-08-17,3.96694
1980-08-18,3.96694
1980-08-19,3.96694
1980-08-20,15.47107
1980-08-21,31.73554
1980-08-22,31.73554
1980-08-23,33.71901
1980-08-24,31.73554
1980-08-25,31.73554
1980-08-26,31.73554
1980-08-27,31.73554
1980-08-28,31.73554
1980-08-29,23.80165
1980-08-30,17.2562
1980-08-31,17.2562
1980-09-01,17.2562
1980-09-02,17.2562
1980-09-03,21.81818
1980-09-04,27.7686
1980-09-05,27.7686
1980-09-06,27.7686
1980-09-07,27.7686
1980-09-08,27.7686
1980-09-09,27.7686
1980-09-10,21.81818
1980-09-11,17.2562
1980-09-12,17.2562
1980-09-13,17.2562
1980-09-14,17.2562
1980-09-15,17.2562
1980-09-16,17.2562
1980-09-17,17.2562
1980-09-18,17.2562
1980-09-19,17.2562
1980-09-20,17.2562
1980-09-21,18.04959
1980-09-22,18.04959
1980-09-23,18.04959
1980-09-24,17.2562
1980-09-25,17.2562
1980-09-26,17.2562
1980-09-27,17.2562
1980-09-28,17.2562
1980-09-29,17.2562
1980-09-30,13.8843
1980-10-01,10.90909
1980-10-02,18.44628
1980-10-03,25.78512
1980-10-04,27.7686
1980-10-05,27.7686
1980-10-06,21.81818
1980-10-07,16.26446
1980-10-08,15.47107
1980-10-09,13.8843
1980-10-10,14.47934
1980-10-11,14.47934
1980-10-12,14.47934
1980-10-13,8.72727
1980-10-14,7.1405
1980-10-15,27.7686
1980-10-16,29.75207
1980-10-17,21.81818
1980-10-18,13.8843
1980-10-19,14.47934
1980-10-20,15.47107
1980-10-21,16.26446
1980-10-22,16.26446
1980-10-23,16.26446
1980-10-24,16.26446
1980-10-25,16.26446
1980-10-26,16.26446
1980-10-27,9.32231
1980-10-28,1.68595
1980-10-29,1.68595
1980-10-30,1.98347
1980-10-31,8.92562
1980-11-01,29.75207
1980-11-02,29.75207
1980-11-03,25.78512
1980-11-04,21.81818
1980-11-05,19.43802
1980-11-06,16.26446
1980-11-07,16.26446
1980-11-08,16.26446
1980-11-09,16.26446
1980-11-10,16.26446
1980-11-11,9.12397
1980-11-12,0.41653
1980-11-13,0.41653
1980-11-14,0.41653
1980-11-15,0.41653
1980-11-16,0.41653
1980-11-17,0.41653
1980-11-18,0.41653
1980-11-19,0.41653
1980-11-20,0.9124
1980-11-21,0.9124
1980-11-22,0.9124
1980-11-23,0.9124
1980-11-24,0.9124
1980-11-25,0.9124
1980-11-26,0.9124
1980-11-27,0.9124
1980-11-28,0.9124
1980-11-29,0.9124
1980-11-30,0.9124
1980-12-01,0.9719000000000001
1980-12-02,0.9917400000000001
1980-12-03,0.9917400000000001
1980-12-04,0.9917400000000001
1980-12-05,0.9917400000000001
1980-12-06,0.9917400000000001
1980-12-07,0.9917400000000001
1980-12-08,0.9917400000000001
1980-12-09,0.9917400000000001
1980-12-10,0.9917400000000001
1980-12-11,0.9917400000000001
1980-12-12,0.9917400000000001
1980-12-13,0.9917400000000001
1980-12-14,0.9917400000000001
1980-12-15,0.9917400000000001
1980-12-16,1.01157
1980-12-17,1.01157
1980-12-18,1.01157
1980-12-19,1.01157
1980-12-20,1.01157
1980-12-21,1.01157
1980-12-22,0.9917400000000001
1980-12-23,0.9917400000000001
1980-12-24,0.9917400000000001
1980-12-25,0.9917400000000001
1980-12-26,0.9917400000000001
1980-12-27,0.9917400000000001
1980-12-28,0.9917400000000001
1980-12-29,0.9917400000000001
1980-12-30,0.9917400000000001
1980-12-31,0.9917400000000001
1981-01-01,0.9917400000000001
1981-01-02,0.9917400000000001
1981-01-03,0.9917400000000001
1981-01-04,0.9917400000000001
1981-01-05,0.9917400000000001
1981-01-06,0.9917400000000001
1981-01-07,0.9917400000000001
1981-01-08,0.9917400000000001
1981-01-09,0.9917400000000001
1981-01-10,0.9917400000000001
1981-01-11,0.9917400000000001
1981-01-12,1.01157
1981-01-13,1.09091
1981-01-14,1.20992
1981-01-15,1.20992
1981-01-16,1.20992
1981-01-17,1.20992
1981-01-18,1.20992
1981-01-19,0.9917400000000001
1981-01-20,0.8727300000000001
1981-01-21,0.8727300000000001
1981-01-22,0.8727300000000001
1981-01-23,0.8727300000000001
1981-01-24,0.8727300000000001
1981-01-25,0.8727300000000001
1981-01-26,0.8727300000000001
1981-01-27,0.8727300000000001
1981-01-28,0.85289
1981-01-29,0.85289
1981-01-30,0.85289
1981-01-31,0.85289
1981-02-01,0.85289
1981-02-02,0.85289
1981-02-03,0.9322300000000001
1981-02-04,0.9917400000000001
1981-02-05,0.9917400000000001
1981-02-06,0.9917400000000001
1981-02-07,0.9917400000000001
1981-02-08,0.9917400000000001
1981-02-09,0.9917400000000001
1981-02-10,1.09091
1981-02-11,1.20992
1981-02-12,1.20992
1981-02-13,1.20992
1981-02-14,1.20992
1981-02-15,1.20992
1981-02-16,1.09091
1981-02-17,1.01157
1981-02-18,1.01157
1981-02-19,1.01157
1981-02-20,1.01157
1981-02-21,1.01157
1981-02-22,1.01157
1981-02-23,0.9917400000000001
1981-02-24,0.9917400000000001
1981-02-25,0.9917400000000001
1981-02-26,0.9917400000000001
1981-02-27,0.9917400000000001
1981-02-28,0.9917400000000001
1981-03-01,0.9917400000000001
1981-03-02,0.9917400000000001
1981-03-03,0.9917400000000001
1981-03-04,0.9917400000000001
1981-03-05,0.9917400000000001
1981-03-06,0.9917400000000001
1981-03-07,0.9917400000000001
1981-03-08,0.9917400000000001
1981-03-09,0.9917400000000001
1981-03-10,0.9917400000000001
1981-03-11,0.9917400000000001
1981-03-12,0.9917400000000001
1981-03-13,0.9917400000000001
1981-03-14,0.9917400000000001
1981-03-15,0.9917400000000001
1981-03-16,0.9917400000000001
1981-03-17,0.9917400000000001
1981-03-18,0.9917400000000001
1981-03-19,0.9917400000000001
1981-03-20,0.9917400000000001
1981-03-21,1.01157
1981-03-22,1.01157
1981-03-23,1.01157
1981-03-24,1.01157
1981-03-25,1.01157
1981-03-26,1.01157
1981-03-27,1.01157
1981-03-28,0.9917400000000001
1981-03-29,0.9917400000000001
1981-03-30,0.9917400000000001
1981-03-31,0.9917400000000001
1981-04-01,0.9917400000000001
1981-04-02,0.9917400000000001
1981-04-03,0.9917400000000001
1981-04-04,0.9917400000000001
1981-04-05,0.9917400000000001
1981-04-06,0.9917400000000001
1981-04-07,0.9917400000000001
1981-04-08,0.9917400000000001
1981-04-09,0.9124
1981-04-10,0.83306
1981-04-11,0.83306
1981-04-12,0.83306
1981-04-13,0.81322
1981-04-14,0.81322
1981-04-15,0.6942100000000001
1981-04-16,0.59504
1981-04-17,0.59504
1981-04-18,0.59504
1981-04-19,0.59504
1981-04-20,0.53554
1981-04-21,0.47603000000000006
1981-04-22,0.47603000000000006
1981-04-23,0.47603000000000006
1981-04-24,0.47603000000000006
1981-04-25,5.75207
1981-04-26,12.69421
1981-04-27,12.69421
1981-04-28,12.89256
1981-04-29,15.47107
1981-04-30,17.45455
1981-05-01,21.81818
1981-05-02,7.1405
1981-05-03,0.25785
1981-05-04,4.56198
1981-05-05,21.81818
1981-05-06,21.81818
1981-05-07,21.81818
1981-05-08,21.81818
1981-05-09,21.81818
1981-05-10,19.83471
1981-05-11,19.83471
1981-05-12,15.07438
1981-05-13,18.44628
1981-05-14,21.81818
1981-05-15,21.81818
1981-05-16,23.80165
1981-05-17,23.80165
1981-05-18,23.80165
1981-05-19,21.81818
1981-05-20,21.81818
1981-05-21,21.81818
1981-05-22,21.81818
1981-05-23,21.81818
1981-05-24,21.81818
1981-05-25,21.81818
1981-05-26,21.81818
1981-05-27,21.81818
1981-05-28,23.80165
1981-05-29,19.04132
1981-05-30,18.84298
1981-05-31,18.84298
1981-06-01,18.84298
1981-06-02,16.8595
1981-06-03,13.8843
1981-06-04,16.8595
1981-06-05,17.85124
1981-06-06,17.85124
1981-06-07,17.85124
1981-06-08,23.80165
1981-06-09,25.78512
1981-06-10,25.78512
1981-06-11,25.78512
1981-06-12,25.78512
1981-06-13,25.78512
1981-06-14,25.78512
1981-06-15,25.78512
1981-06-16,25.78512
1981-06-17,27.7686
1981-06-18,27.7686
1981-06-19,25.78512
1981-06-20,25.78512
1981-06-21,25.78512
1981-06-22,27.7686
1981-06-23,29.75207
1981-06-24,27.7686
1981-06-25,27.7686
1981-06-26,27.7686
1981-06-27,25.78512
1981-06-28,25.78512
1981-06-29,25.78512
1981-06-30,25.78512
1981-07-01,25.78512
1981-07-02,25.78512
1981-07-03,25.78512
1981-07-04,25.78512
1981-07-05,25.78512
1981-07-06,25.78512
1981-07-07,43.63636
1981-07-08,57.52066
1981-07-09,55.53719
1981-07-10,43.63636
1981-07-11,29.75207
1981-07-12,29.75207
1981-07-13,29.75207
1981-07-14,29.75207
1981-07-15,29.75207
1981-07-16,29.75207
1981-07-17,29.75207
1981-07-18,29.75207
1981-07-19,29.75207
1981-07-20,29.75207
1981-07-21,29.75207
1981-07-22,31.73554
1981-07-23,31.73554
1981-07-24,31.73554
1981-07-25,31.73554
1981-07-26,31.73554
1981-07-27,31.73554
1981-07-28,31.73554
1981-07-29,29.75207
1981-07-30,19.83471
1981-07-31,11.90083
1981-08-01,7.73554
1981-08-02,4.56198
1981-08-03,4.56198
1981-08-04,4.56198
1981-08-05,1.60661
1981-08-06,2.38017
1981-08-07,7.93388
1981-08-08,41.65289
1981-08-09,41.65289
1981-08-10,16.06612
1981-08-11,1.30909
1981-08-12,6.14876
1981-08-13,8.52893
1981-08-14,6.34711
1981-08-15,6.34711
1981-08-16,6.34711
1981-08-17,6.34711
1981-08-18,6.54545
1981-08-19,4.76033
1981-08-20,4.76033
1981-08-21,4.76033
1981-08-22,4.76033
1981-08-23,4.76033
1981-08-24,4.76033
1981-08-25,4.76033
1981-08-26,4.76033
1981-08-27,4.76033
1981-08-28,3.57025
1981-08-29,9.71901
1981-08-30,16.06612
1981-08-31,16.06612
1981-09-01,16.06612
1981-09-02,15.07438
1981-09-03,14.08264
1981-09-04,31.73554
1981-09-05,19.83471
1981-09-06,23.80165
1981-09-07,25.78512
1981-09-08,25.78512
1981-09-09,18.04959
1981-09-10,11.10744
1981-09-11,11.10744
1981-09-12,11.10744
1981-09-13,11.10744
1981-09-14,11.10744
1981-09-15,11.10744
1981-09-16,11.10744
1981-09-17,11.10744
1981-09-18,11.10744
1981-09-19,11.10744
1981-09-20,11.10744
1981-09-21,11.10744
1981-09-22,11.10744
1981-09-23,11.10744
1981-09-24,10.90909
1981-09-25,10.90909
1981-09-26,10.90909
1981-09-27,10.90909
1981-09-28,10.90909
1981-09-29,10.90909
1981-09-30,10.90909
1981-10-01,10.71074
1981-10-02,10.71074
1981-10-03,10.71074
1981-10-04,10.71074
1981-10-05,10.71074
1981-10-06,7.93388
1981-10-07,7.93388
1981-10-08,7.93388
1981-10-09,7.93388
1981-10-10,7.93388
1981-10-11,7.93388
1981-10-12,7.93388
1981-10-13,3.7686
1981-10-14,5.55372
1981-10-15,10.5124
1981-10-16,10.5124
1981-10-17,10.5124
1981-10-18,10.5124
1981-10-19,10.5124
1981-10-20,10.5124
1981-10-21,6.7438
1981-10-22,5.55372
1981-10-23,5.55372
1981-10-24,5.55372
1981-10-25,5.55372
1981-10-26,7.93388
1981-10-27,10.5124
1981-10-28,10.5124
1981-10-29,10.5124
1981-10-30,4.95868
1981-10-31,0.9917400000000001
1981-11-01,0.9917400000000001
1981-11-02,0.9917400000000001
1981-11-03,0.9917400000000001
1981-11-04,0.9917400000000001
1981-11-05,0.9917400000000001
1981-11-06,0.9917400000000001
1981-11-07,0.9917400000000001
1981-11-08,0.9917400000000001
1981-11-09,0.9917400000000001
1981-11-10,0.9917400000000001
1981-11-11,0.9917400000000001
1981-11-12,0.9917400000000001
1981-11-13,7.93388
1981-11-14,13.28926
1981-11-15,13.28926
1981-11-16,13.28926
1981-11-17,13.28926
1981-11-18,13.28926
1981-11-19,13.28926
1981-11-20,8.52893
1981-11-21,4.95868
1981-11-22,4.95868
1981-11-23,4.95868
1981-11-24,4.95868
1981-11-25,4.95868
1981-11-26,4.95868
1981-11-27,4.95868
1981-11-28,4.95868
1981-11-29,4.95868
1981-11-30,4.76033
1981-12-01,4.95868
1981-12-02,4.95868
1981-12-03,4.95868
1981-12-04,3.17355
1981-12-05,1.96364
1981-12-06,1.96364
1981-12-07,1.96364
1981-12-08,1.96364
1981-12-09,1.96364
1981-12-10,1.96364
1981-12-11,1.96364
1981-12-12,1.96364
1981-12-13,1.96364
1981-12-14,1.50744
1981-12-15,0.9719000000000001
1981-12-16,0.9520700000000001
1981-12-17,0.9520700000000001
1981-12-18,0.9520700000000001
1981-12-19,0.9520700000000001
1981-12-20,0.9520700000000001
1981-12-21,0.9520700000000001
1981-12-22,0.9520700000000001
1981-12-23,0.9520700000000001
1981-12-24,0.9520700000000001
1981-12-25,0.9520700000000001
1981-12-26,0.9520700000000001
1981-12-27,0.9520700000000001
1981-12-28,0.9520700000000001
1981-12-29,0.9520700000000001
1981-12-30,0.9520700000000001
1981-12-31,0.9520700000000001
1982-01-01,0.9719000000000001
1982-01-02,0.9719000000000001
1982-01-03,0.9719000000000001